Weather History for KDPA - August, 2013

Change the Weather History Date:

Wednesday, August 28, 2013

  Actual Average Record
Temperature  
Mean Temperature 78 °F 71 °F  
Max Temperature 87 °F 81 °F 92 °F (2003)
Min Temperature 69 °F 60 °F 54 °F (2003)
Degree Days  
Heating Degree Days 0 0  
Month to date heating degree days 7 0  
Since 1 June heating degree days 80 38  
Since 1 July heating degree days 26 2  
Cooling Degree Days 13 6  
Month to date cooling degree days 158 205  
Year to date cooling degree days 593 707  
Since 1 June cooling degree days 516 661  
Growing Degree Days 28 (Base 50)    
Moisture  
Dew Point 69 °F    
Average Humidity 76    
Maximum Humidity 94    
Minimum Humidity 61    
Precipitation  
Precipitation 0.00 in 0.12 in 1.68 in (2004)
Month to date precipitation 1.02 4.25  
Year to date precipitation 26.16 25.28  
Sea Level Pressure  
Sea Level Pressure 29.95 in    
Wind  
Wind Speed 7 mph (NNE)    
Max Wind Speed 14 mph    
Max Gust Speed 25 mph    
Visibility 9 miles    
Events      
T = Trace of Precipitation, MM = Missing Value Source: NWS Daily Summary

Daily Weather History Graph

Daily Weather History Graph

Search for Another Location

Airport or City:

Trip Planner

Search our weather history database for the weather conditions in past years. The results will help you decide how hot, cold, wet, or windy it might be!

Date:

Astronomy

Aug. 28, 2013 Rise Set
Actual Time 6:14 AM CDT 7:32 PM CDT
Civil Twilight 5:45 AM CDT 8:01 PM CDT
Nautical Twilight 5:11 AM CDT 8:36 PM CDT
Astronomical Twilight 4:34 AM CDT 9:12 PM CDT
Moon No Moon Rise 2:12 PM CDT
Length of Visible Light 14h 15m
Length of Day
13h 17m
Waning Gibbous, 47% of the Moon is Illuminated
Aug 28
Waning Gibbous
Sep 5
New
Sep 12
First Quarter
Sep 19
Full
Sep 26
Last Quarter

Hourly Weather History & Observations

Time (CDT) Temp. Heat Index Dew Point Humidity Pressure Visibility Wind Dir Wind Speed Gust Speed Precip Events Conditions
12:52 AM 78.1 °F - 66.9 °F 68% 29.84 in 10.0 mi WSW 15.0 mph - N/A   Clear
1:52 AM 75.9 °F - 66.0 °F 71% 29.83 in 10.0 mi WSW 10.4 mph - N/A   Clear
2:52 AM 73.9 °F - 66.0 °F 76% 29.83 in 10.0 mi SW 5.8 mph - N/A   Clear
3:52 AM 72.0 °F - 66.0 °F 81% 29.86 in 10.0 mi South 4.6 mph - N/A   Clear
4:52 AM 75.0 °F - 66.9 °F 76% 29.86 in 10.0 mi Calm Calm - N/A   Mostly Cloudy
5:52 AM 75.0 °F - 66.9 °F 76% 29.89 in 10.0 mi North 5.8 mph - N/A   Overcast
6:52 AM 73.9 °F - 68.0 °F 82% 29.91 in 10.0 mi West 3.5 mph - N/A   Mostly Cloudy
7:52 AM 78.1 °F - 69.1 °F 74% 29.91 in 10.0 mi Calm Calm - N/A   Partly Cloudy
8:52 AM 80.1 °F 83.8 °F 72.0 °F 76% 29.92 in 9.0 mi NNE 5.8 mph - N/A   Clear
9:10 AM 78.8 °F - 71.6 °F 78% 29.94 in 7.0 mi NNE 10.4 mph - N/A   Mostly Cloudy
9:39 AM 78.8 °F - 71.6 °F 78% 29.96 in 6.0 mi NNE 9.2 mph - N/A   Haze
9:52 AM 78.1 °F - 72.0 °F 81% 29.94 in 6.0 mi NE 9.2 mph - N/A   Haze
10:34 AM 78.8 °F - 71.6 °F 78% 29.97 in 9.0 mi North 5.8 mph - N/A   Overcast
10:52 AM 80.1 °F 83.6 °F 71.1 °F 74% 29.95 in 10.0 mi North 4.6 mph - N/A   Overcast
11:52 AM 80.1 °F 83.8 °F 72.0 °F 76% 29.96 in 10.0 mi NNE 8.1 mph - N/A   Overcast
12:52 PM 81.0 °F 85.2 °F 72.0 °F 74% 29.97 in 10.0 mi North 5.8 mph - N/A   Overcast
1:52 PM 84.0 °F 89.0 °F 71.1 °F 65% 29.96 in 10.0 mi NNE 8.1 mph - N/A   Mostly Cloudy
2:18 PM 86.0 °F 91.8 °F 71.6 °F 62% 29.98 in 10.0 mi North 4.6 mph - N/A   Scattered Clouds
2:52 PM 82.9 °F 87.0 °F 70.0 °F 65% 29.96 in 10.0 mi NE 11.5 mph - N/A   Scattered Clouds
3:52 PM 84.0 °F 88.4 °F 70.0 °F 63% 29.96 in 10.0 mi NNE 9.2 mph - N/A   Partly Cloudy
4:52 PM 84.9 °F 89.4 °F 70.0 °F 61% 29.98 in 10.0 mi NNE 9.2 mph - N/A   Scattered Clouds
5:52 PM 80.1 °F 82.9 °F 69.1 °F 69% 29.99 in 10.0 mi East 11.5 mph - N/A   Clear
6:52 PM 78.1 °F - 69.1 °F 74% 29.99 in 10.0 mi ENE 8.1 mph - N/A   Clear
7:52 PM 75.0 °F - 68.0 °F 79% 30.00 in 10.0 mi ENE 5.8 mph - N/A   Clear
8:52 PM 73.0 °F - 66.9 °F 81% 30.02 in 10.0 mi NE 5.8 mph - N/A   Clear
9:52 PM 71.1 °F - 66.9 °F 87% 30.02 in 10.0 mi NE 5.8 mph - N/A   Clear
10:44 PM 69.8 °F - 68.0 °F 94% 30.05 in 6.0 mi NE 4.6 mph - N/A   Scattered Clouds
10:52 PM 70.0 °F - 66.9 °F 90% 30.04 in 6.0 mi NE 5.8 mph - N/A   Mostly Cloudy
11:52 PM 70.0 °F - 68.0 °F 93% 30.04 in 6.0 mi ENE 8.1 mph - N/A   Overcast